Theta_e
303 303 303 304 304 304 304 304 305 305 305 305 305 306 306 307 307 307 307 308 307 309 319 321 315 316 316 316 316 317 317 318 322 323 326 326 320 322 323 323 325 326 325 325 324 328 330 330 331 331 336 339 343 349 345 345 342 342 352 350 340 343 343 344 353 361 354 346 344 342 344 345 346 346 346 347 347 347 349 348 350 349 350 349 351 352 353 355
303 303 303 303 303 304 304 304 305 304 305 305 305 306 306 307 307 307 308 308 308 308 317 320 315 316 317 315 316 318 318 321 327 329 329 321 322 323 321 321 323 326 325 326 325 328 332 333 330 330 336 341 342 346 345 344 343 342 349 348 343 346 346 345 348 352 351 345 343 343 343 344 346 345 345 348 349 349 351 352 352 352 352 351 353 353 354 354
302 303 303 303 304 304 304 304 304 305 305 305 305 305 306 307 307 307 307 308 308 308 315 320 316 316 316 315 317 317 321 326 331 333 328 323 328 326 323 321 323 325 324 324 324 324 329 331 328 330 333 338 341 343 344 343 342 342 348 350 347 344 343 344 346 347 347 346 345 345 345 346 346 345 347 349 352 352 353 354 354 356 355 353 353 353 354 354
303 303 303 303 303 304 304 304 304 305 305 305 305 305 306 306 306 307 307 308 308 307 314 321 317 316 316 314 316 318 324 329 328 326 326 325 329 330 324 320 324 326 323 323 323 325 328 329 327 327 329 334 336 339 342 343 341 338 345 350 345 342 343 343 344 344 346 346 346 347 348 348 346 348 350 352 355 355 354 353 354 355 354 353 353 353 354 354
303 303 303 303 304 304 304 304 304 305 305 305 305 305 305 306 306 306 307 307 308 308 313 320 318 316 315 313 316 321 324 324 321 329 329 323 327 329 322 320 323 325 323 322 322 325 327 328 327 328 330 332 332 335 339 340 339 336 339 343 343 341 343 342 342 343 345 346 347 347 350 348 348 351 352 355 358 356 352 351 352 353 353 353 353 354 354 354
303 303 303 303 303 304 304 304 304 304 305 305 305 305 305 306 306 307 307 307 308 308 314 320 317 315 314 312 317 322 322 317 320 328 326 324 326 324 320 320 323 325 324 322 324 326 327 328 329 330 331 331 331 332 334 336 336 338 339 340 341 342 342 343 343 344 345 347 348 348 348 349 350 351 351 355 357 354 350 349 351 351 352 352 353 355 354 354
302 302 302 303 303 303 304 304 304 304 305 305 305 305 306 306 306 306 306 307 308 309 316 320 317 315 313 314 320 327 330 325 321 321 323 324 325 324 320 320 323 326 324 323 326 328 328 329 330 332 331 330 331 330 332 334 334 339 341 341 340 342 343 342 342 344 346 346 347 347 347 349 351 351 349 351 352 351 349 350 351 351 351 351 352 354 354 354
302 302 302 303 303 303 304 304 304 304 305 305 305 305 306 306 306 307 306 307 307 309 317 320 317 314 312 315 323 328 330 329 322 319 322 325 326 324 320 320 323 325 323 322 326 327 328 330 330 332 332 330 330 329 330 332 332 337 340 341 341 343 343 343 343 344 346 347 347 348 349 350 351 350 350 352 352 350 349 350 350 350 350 351 352 353 355 355
302 302 303 303 303 303 303 304 304 304 305 305 305 305 306 306 306 306 306 307 307 309 317 320 316 313 313 321 326 322 321 322 323 323 321 325 326 323 322 321 323 325 324 324 326 327 328 330 330 331 331 329 328 328 329 329 332 337 338 340 341 341 343 345 346 347 347 348 348 351 352 351 349 351 353 352 351 350 349 349 350 350 351 351 352 352 354 355
302 302 303 303 303 303 303 303 304 304 305 305 305 305 306 307 307 307 307 307 307 310 319 319 316 314 316 327 328 319 318 320 327 329 324 326 326 324 324 321 323 325 324 324 326 327 327 329 329 328 328 329 328 328 328 329 335 337 337 338 339 341 344 346 346 347 347 347 349 351 352 350 349 352 354 352 350 349 349 350 349 351 351 351 351 351 352 351
302 303 303 303 303 303 303 303 304 304 305 305 306 306 306 307 306 307 307 307 307 312 320 319 315 315 319 329 329 319 319 323 330 331 327 329 326 325 325 322 323 325 324 323 324 325 327 327 327 327 330 331 330 329 328 330 335 338 337 338 338 340 343 345 347 346 347 347 348 350 351 351 349 352 354 351 348 349 349 350 348 349 350 350 350 351 351 349
302 302 302 303 303 303 303 304 304 304 305 305 306 306 307 307 307 307 307 308 308 313 320 318 315 319 324 331 329 323 321 323 326 327 326 328 326 325 325 324 322 323 323 323 323 323 325 327 327 328 330 330 330 329 329 331 335 337 339 338 340 343 345 345 346 345 347 349 347 348 349 350 352 352 352 350 349 348 348 348 347 347 348 349 349 350 351 349
302 302 303 302 303 303 303 304 304 304 305 305 306 307 307 307 308 308 308 309 310 316 319 317 316 322 328 332 327 322 322 322 323 324 325 325 326 326 324 324 322 322 321 321 322 322 325 327 326 328 329 328 329 328 329 332 336 338 337 337 339 340 342 344 345 345 347 346 346 348 343 346 353 351 349 349 348 349 349 348 347 347 348 349 349 350 353 350
302 302 303 302 303 303 303 304 304 305 305 305 307 308 308 308 307 308 309 311 313 318 320 318 319 326 334 333 323 323 325 327 328 328 327 325 326 327 325 324 324 323 321 321 322 322 324 325 325 325 327 326 328 329 331 334 336 338 335 337 341 332 333 343 344 344 346 344 346 347 340 344 352 349 349 350 349 349 351 350 347 348 350 350 351 350 356 357
302 302 302 303 303 303 303 303 304 305 305 306 307 308 308 309 308 309 312 314 317 320 319 319 320 328 338 334 326 326 328 334 335 330 330 328 325 325 325 322 323 324 323 322 323 324 325 324 323 324 325 326 328 329 334 336 336 339 330 327 336 330 330 343 342 343 345 343 345 346 341 345 351 349 348 348 349 350 351 350 350 351 351 349 352 352 356 358
302 303 302 302 302 303 303 303 304 304 305 306 307 308 310 309 310 313 317 318 320 321 321 324 323 326 338 336 330 329 330 337 338 330 330 330 326 324 323 322 322 323 323 324 325 324 324 324 324 324 324 326 329 333 334 331 330 337 334 323 327 329 329 338 342 343 344 343 345 346 344 347 350 349 347 346 347 350 351 350 351 352 351 351 352 353 356 358
302 303 302 302 302 303 303 303 304 304 305 306 307 309 310 311 316 322 324 322 321 320 322 326 325 326 334 332 329 330 331 334 333 331 331 329 328 325 321 322 321 322 323 323 324 323 323 324 324 325 329 327 332 336 327 320 320 329 335 328 327 331 329 331 337 342 343 343 345 346 347 348 350 349 346 347 347 348 351 350 353 353 353 354 352 352 356 357
302 303 302 302 303 302 303 303 303 304 305 306 307 311 312 317 326 328 325 323 324 324 325 329 328 325 328 329 331 332 331 332 332 332 329 327 329 324 322 321 322 322 322 322 324 323 323 324 324 328 333 331 335 336 323 319 324 323 328 327 325 330 331 331 335 340 341 343 346 347 348 349 350 349 346 347 346 348 351 350 353 354 353 353 352 354 355 354
303 303 302 302 302 302 303 303 304 304 304 306 309 314 319 325 330 331 327 329 335 334 332 335 333 325 323 329 330 329 328 330 331 329 326 327 328 324 322 321 322 322 322 322 324 323 323 324 323 323 328 332 335 335 328 327 332 330 332 330 325 325 329 337 338 338 340 343 347 348 347 349 349 349 347 347 348 349 350 351 352 353 353 351 351 353 354 353
303 303 302 303 302 302 303 303 304 303 304 310 314 317 321 324 326 329 331 334 339 334 328 332 333 328 327 327 326 328 329 330 329 327 326 326 326 324 321 320 323 322 322 323 323 324 325 324 324 322 325 331 333 332 333 332 333 335 336 332 330 326 328 338 342 338 340 340 344 350 348 349 351 348 348 347 349 350 350 351 352 353 352 350 352 353 352 353
303 303 303 302 302 302 302 303 304 303 307 313 315 318 321 321 320 323 325 328 329 329 328 329 331 330 330 328 328 330 329 329 329 324 326 326 326 326 322 321 321 321 322 323 322 325 326 322 324 329 328 330 333 333 331 330 331 336 335 330 329 328 329 339 342 339 339 340 340 349 349 348 351 348 348 348 348 350 350 350 351 353 352 351 353 353 351 355
303 303 303 302 303 302 302 304 303 305 311 313 312 315 317 318 319 319 321 322 322 323 327 328 328 330 330 328 330 330 329 332 329 325 325 325 326 328 325 322 321 323 324 323 323 324 324 322 324 329 331 329 332 332 331 331 330 333 335 329 326 329 333 336 341 341 340 339 341 348 347 347 351 348 348 349 349 349 348 350 351 352 353 352 354 354 352 357
303 303 303 303 303 302 303 303 303 310 313 310 310 313 314 316 317 318 320 323 323 323 324 325 327 328 329 329 330 330 330 332 329 325 324 325 328 328 325 322 323 324 323 323 323 320 321 326 328 329 330 330 331 332 330 330 327 329 333 327 323 331 331 327 336 343 340 340 343 347 345 345 350 349 348 348 347 349 348 348 349 350 352 352 353 354 352 357
304 303 303 303 303 303 303 302 307 313 310 308 312 314 314 315 316 318 322 323 325 325 325 327 327 328 329 329 329 328 329 329 329 326 324 326 327 325 323 322 324 324 323 324 322 322 325 332 332 330 331 332 330 331 332 329 324 327 334 328 325 331 332 330 337 343 339 340 344 345 338 340 347 349 351 349 346 347 348 349 350 350 351 351 353 353 354 356
304 303 303 303 303 303 301 305 311 311 307 308 314 314 313 314 313 316 321 326 327 326 326 328 327 328 328 328 328 327 328 327 329 327 325 326 325 324 324 322 323 323 322 322 322 323 325 329 331 331 332 331 330 331 331 326 321 321 330 335 332 334 335 337 340 338 331 330 339 342 331 334 346 348 350 349 348 348 348 351 352 352 352 352 354 355 355 356
303 303 303 303 303 302 303 309 309 306 308 313 314 312 313 312 312 314 321 329 327 326 329 328 328 330 328 328 328 327 328 328 328 328 326 326 325 325 323 321 323 322 322 322 322 323 323 325 328 331 332 330 330 329 328 329 320 316 329 337 334 335 338 337 337 333 324 324 338 342 333 332 338 342 350 349 348 348 348 350 351 351 353 353 354 355 355 356
303 303 303 303 303 303 307 310 307 307 313 314 310 311 312 310 310 314 324 330 328 329 331 328 326 328 327 328 328 327 327 328 328 328 326 326 326 325 324 323 322 321 323 322 318 320 324 325 325 329 331 329 328 326 328 330 319 318 335 339 332 335 337 336 334 329 327 331 337 340 339 334 329 335 348 350 346 349 349 350 350 352 352 353 354 355 356 356
303 303 303 303 304 304 306 309 307 311 315 309 309 310 310 308 311 323 330 327 331 333 330 326 324 326 325 328 327 328 330 330 329 328 326 326 326 325 325 323 321 321 324 321 314 320 326 326 325 328 328 328 327 327 330 329 323 327 336 333 331 332 336 341 334 328 331 333 328 333 337 334 332 343 356 353 346 346 349 349 350 352 350 352 354 353 356 355
303 303 303 304 303 304 307 308 309 313 310 307 310 309 308 308 317 333 332 326 331 330 328 324 324 324 325 327 327 328 330 329 329 330 326 325 325 325 325 323 322 321 322 322 319 324 327 326 327 327 327 328 327 329 330 328 327 330 330 331 330 329 334 337 334 329 327 328 325 328 330 330 335 346 352 350 345 343 348 349 348 351 349 350 353 353 355 356
303 303 303 304 305 306 307 307 309 309 307 308 308 306 307 315 327 334 328 326 327 327 327 322 323 325 326 328 328 328 328 329 328 328 325 326 325 324 325 324 323 322 323 323 322 324 325 326 329 328 327 329 328 330 330 327 330 330 331 328 325 333 341 339 342 336 323 323 326 325 327 327 329 338 344 344 346 345 347 348 348 350 349 350 352 352 355 356
303 303 303 305 306 307 306 307 307 307 309 307 306 309 312 322 334 330 327 328 324 325 327 323 324 325 325 327 328 328 329 328 327 327 325 325 324 324 323 324 323 322 322 322 321 323 323 324 327 328 328 330 328 329 329 329 330 328 331 326 321 332 336 326 327 327 319 320 325 326 327 323 322 334 347 347 349 347 346 347 347 349 348 350 350 351 354 356
303 302 303 305 306 307 307 308 305 307 307 305 310 317 319 324 327 326 327 326 322 328 327 323 326 325 324 328 328 328 328 328 329 326 325 323 323 324 323 325 325 319 315 318 319 322 321 323 326 326 329 330 328 327 326 329 330 327 330 324 318 321 319 315 319 321 321 324 325 325 325 320 322 336 349 349 347 347 345 345 346 347 347 348 349 351 353 354
303 302 303 304 305 307 308 305 305 307 305 308 316 322 322 323 324 324 324 322 323 328 326 324 327 324 326 325 326 328 328 327 329 327 324 323 324 323 321 327 328 321 319 321 317 314 316 321 324 324 327 329 328 326 320 323 327 326 324 319 320 322 315 315 323 321 319 322 324 325 322 319 323 335 348 349 346 346 346 344 344 346 348 347 348 351 352 353
303 303 304 305 306 307 305 304 306 306 308 313 320 322 321 321 325 324 322 322 324 325 324 325 326 325 327 325 324 328 326 327 330 328 326 324 322 322 321 323 326 326 327 323 316 314 312 316 325 324 324 328 330 327 323 327 328 327 332 327 323 326 320 317 323 320 318 320 320 320 322 319 320 333 349 347 344 346 344 344 347 346 347 346 346 350 352 353
303 304 305 306 306 306 306 307 307 309 311 317 321 321 319 318 321 321 322 323 323 324 325 325 325 325 325 325 325 327 325 325 328 328 327 324 321 322 322 323 324 325 325 319 318 318 311 314 329 328 326 328 328 328 328 329 325 325 335 329 320 328 329 320 324 329 324 321 321 320 325 335 337 345 354 344 343 349 345 347 350 346 348 347 346 350 352 353
303 305 307 308 308 308 308 309 310 311 314 320 319 317 317 317 320 322 323 325 323 324 324 322 323 321 319 323 326 328 329 327 329 327 326 326 324 323 324 324 325 324 324 322 322 319 311 316 332 329 327 329 326 329 328 324 328 329 324 321 324 333 334 321 320 329 322 318 325 325 324 334 337 341 356 351 348 352 348 348 347 346 349 348 347 350 352 353
307 310 311 311 311 312 311 311 312 313 319 321 316 315 314 314 320 321 323 325 322 323 323 319 320 319 315 317 321 327 329 326 327 326 322 323 323 324 325 325 325 325 324 324 325 325 317 317 330 329 326 328 327 328 330 327 335 330 317 322 332 329 334 332 322 322 321 319 327 325 319 322 324 332 356 360 352 353 350 347 345 347 349 348 347 349 350 352
308 310 312 315 315 315 314 313 313 316 323 321 316 319 320 316 317 319 320 322 321 322 322 317 319 321 317 315 319 326 327 323 324 324 321 321 321 324 326 324 325 326 325 324 323 329 323 315 327 336 327 327 330 325 326 328 331 330 324 331 330 318 319 326 319 317 320 320 323 325 324 323 324 334 349 350 352 353 349 349 346 346 348 348 348 348 349 351
309 313 319 318 318 318 316 315 316 320 324 319 315 320 322 317 316 318 318 320 320 321 322 319 320 321 320 319 319 323 325 323 323 322 319 321 321 324 327 325 325 324 325 326 324 329 327 316 320 339 331 326 329 324 317 321 326 329 329 330 329 324 321 320 320 321 320 321 324 324 323 327 338 356 357 349 353 351 347 350 347 344 347 348 347 348 349 351
310 316 320 318 320 319 316 316 319 323 323 320 316 317 317 316 317 318 317 318 319 320 321 321 322 320 321 321 320 322 325 324 323 321 320 323 321 323 326 325 326 326 324 326 324 326 327 318 315 330 333 323 322 323 320 321 324 323 322 320 321 324 324 320 323 323 320 324 328 324 323 334 358 372 359 349 348 346 346 349 348 346 346 347 347 348 349 350
311 319 322 320 319 319 319 320 323 324 324 323 319 317 316 316 316 317 318 318 318 320 320 320 321 320 320 321 320 321 323 324 324 321 321 324 322 321 325 325 326 325 324 325 325 323 324 324 317 318 320 316 321 329 327 326 327 325 323 321 320 322 322 320 321 321 320 323 326 324 321 335 360 358 350 348 345 345 349 346 347 349 347 347 347 347 348 351
314 320 319 316 316 316 318 324 325 324 325 324 320 318 318 318 319 318 317 318 318 319 320 321 321 321 321 321 322 322 322 325 326 323 323 324 324 325 325 326 326 325 324 325 324 325 330 332 322 315 319 323 326 330 327 325 329 329 327 326 327 327 325 321 320 320 318 320 326 329 325 337 366 359 346 348 349 348 350 349 349 350 348 349 348 345 348 350
314 315 315 313 315 315 317 324 328 326 324 323 321 320 321 320 319 319 318 318 318 318 320 320 320 322 322 322 322 323 322 325 328 329 327 325 326 326 325 326 325 325 326 323 324 330 332 327 318 317 326 329 328 328 327 329 329 325 327 328 327 328 327 334 342 333 322 318 323 329 326 338 370 365 343 345 349 345 346 348 349 349 349 350 348 349 350 351
311 311 313 316 318 317 316 323 329 329 327 324 321 321 320 320 319 319 319 318 318 319 319 320 321 321 322 323 323 325 325 325 327 332 332 329 328 327 326 326 324 325 325 324 326 327 325 324 319 316 318 318 321 323 320 324 326 324 331 329 326 332 328 335 346 334 321 321 324 326 324 335 361 358 341 343 343 340 342 345 346 348 350 352 351 352 353 355
311 314 316 317 317 318 317 318 322 326 327 324 323 323 321 321 321 320 320 319 320 320 319 320 322 321 321 322 321 324 327 326 327 330 332 333 333 330 326 325 326 323 323 334 336 324 328 336 324 315 315 316 318 320 320 324 327 327 332 329 327 333 324 325 330 320 317 327 330 327 326 336 354 349 338 341 340 340 345 344 344 348 349 351 354 355 356 357
315 321 321 316 316 317 318 317 316 317 319 320 322 324 322 323 323 321 321 320 319 320 320 321 321 321 323 324 322 324 328 328 328 329 334 337 339 337 331 332 332 325 331 351 345 327 335 344 329 320 321 321 324 335 342 335 324 319 323 326 327 330 327 331 327 320 326 333 330 334 334 331 339 343 340 343 340 341 347 344 344 348 347 350 355 357 357 358
316 324 321 314 316 317 317 316 314 312 315 318 321 324 323 324 325 323 322 321 320 322 320 320 322 324 326 326 325 324 330 333 330 328 335 342 344 341 335 337 337 336 350 358 342 332 335 331 328 330 327 324 335 352 352 334 321 319 321 323 327 329 331 328 322 327 340 330 322 339 345 328 330 343 342 342 341 341 344 344 343 346 346 349 355 361 361 358
320 322 316 312 315 316 315 314 313 312 315 318 321 323 324 325 326 325 324 321 322 323 323 326 326 326 328 327 325 327 334 337 335 335 339 343 346 344 341 342 339 339 349 347 338 343 336 323 326 331 326 326 337 346 342 329 325 325 324 323 325 328 328 325 327 340 344 326 321 339 344 331 334 341 339 338 340 339 340 341 341 342 345 348 355 365 367 362
318 317 315 313 314 314 314 313 314 316 317 319 324 325 323 324 324 322 324 324 324 324 328 332 330 327 329 329 329 335 340 337 335 341 343 342 346 347 343 345 341 336 336 334 337 345 333 328 335 330 323 328 334 336 335 327 326 326 325 328 327 327 328 326 332 345 342 335 341 346 341 339 338 336 336 337 338 338 341 343 342 343 345 350 356 364 367 364
313 313 314 314 314 314 314 315 317 318 319 322 327 326 321 321 321 320 324 328 329 330 330 331 331 329 330 332 332 337 339 336 338 343 341 339 344 345 342 343 339 335 333 332 337 338 329 334 347 333 320 324 329 333 332 327 327 323 323 331 330 328 332 327 329 339 336 336 346 344 340 343 340 338 343 346 346 346 344 346 346 347 350 355 359 365 366 365
309 310 311 313 316 317 316 317 317 319 322 324 325 323 320 318 318 320 329 332 330 331 331 331 332 332 332 336 335 333 333 334 336 337 334 335 338 338 338 339 335 334 337 334 335 338 333 336 345 331 317 319 327 329 327 327 328 321 320 329 328 326 329 328 332 338 331 334 343 338 333 339 342 348 353 351 348 346 345 348 351 351 355 358 360 364 366 368
307 309 310 312 316 317 316 316 315 318 324 323 320 320 319 316 316 323 335 338 330 328 331 332 331 334 338 340 336 330 329 329 331 332 332 333 335 333 334 335 333 333 337 337 337 341 340 334 333 327 318 319 327 329 331 331 324 319 325 330 329 333 333 330 338 344 342 349 353 340 336 344 347 349 352 349 346 348 351 353 355 357 360 360 361 366 368 369
Wind_Speed
24 25 25 26 27 27 28 28 29 29 28 29 29 29 29 30 30 30 30 30 31 31 27 23 21 19 19 20 21 20 21 19 16 9 8 19 25 21 17 15 12 8 8 11 12 10 9 8 11 11 6 4 2 2 2 2 2 3 3 3 2 3 5 5 6 5 4 6 9 12 12 13 11 8 9 12 14 14 12 9 11 11 12 16 20 27 32 32
24 25 25 26 27 27 28 29 29 29 29 29 29 29 30 30 30 30 30 30 31 30 26 23 20 18 18 19 19 19 21 19 14 11 16 21 23 22 21 19 15 11 9 11 13 10 4 5 6 3 1 2 2 2 2 1 2 3 4 3 4 4 4 7 9 7 6 8 10 11 12 13 13 12 11 12 13 14 14 11 13 15 14 18 23 28 31 32
24 25 25 26 27 28 28 29 29 30 30 30 30 30 30 30 30 30 30 30 31 30 26 22 20 18 18 18 18 19 18 13 7 10 13 12 13 18 20 22 18 13 12 13 12 12 10 8 5 5 1 3 3 4 3 2 2 3 4 4 6 5 5 7 9 7 7 9 10 9 8 10 10 10 9 13 16 15 16 14 14 16 16 17 19 25 28 27
24 25 25 26 27 28 28 29 30 30 30 30 30 30 30 30 30 30 30 30 30 30 26 21 20 18 17 16 15 16 13 6 4 8 5 13 12 10 17 23 21 17 14 13 11 12 12 9 6 4 2 4 4 4 5 4 2 3 5 6 6 6 6 7 10 9 7 10 11 9 8 8 7 10 13 16 15 11 14 17 19 20 19 19 17 21 25 23
25 26 26 27 27 28 29 29 30 30 31 31 31 31 31 30 30 30 30 30 29 29 25 21 20 19 17 14 11 13 9 3 4 7 3 14 13 6 17 23 23 19 15 14 13 11 9 7 3 1 2 4 4 3 6 7 4 2 4 9 9 9 8 8 10 10 8 10 10 10 9 6 8 13 15 18 14 8 11 16 21 22 21 21 20 20 22 21
26 27 27 28 28 29 29 30 30 30 31 32 32 32 31 31 30 30 30 30 29 28 24 20 19 19 16 12 8 8 4 1 8 10 10 14 11 4 16 23 22 17 15 15 11 5 3 2 2 1 2 3 4 5 7 6 4 2 3 9 11 10 10 9 9 10 11 12 9 8 6 5 10 11 9 13 14 11 13 16 19 20 21 23 22 20 19 18
26 27 28 29 29 30 30 30 31 31 31 32 33 32 32 32 31 30 30 30 29 26 22 19 18 18 14 9 5 4 2 6 15 12 10 11 5 3 14 22 21 15 15 14 8 3 1 2 4 2 1 5 5 7 7 5 2 6 6 8 12 12 11 10 12 13 12 12 9 7 7 6 9 8 6 10 13 14 15 16 18 19 21 22 18 18 18 18
27 28 28 29 30 31 31 31 31 31 32 32 33 33 33 32 32 31 30 29 28 24 20 18 16 15 12 6 3 3 1 10 16 10 7 6 2 6 12 20 20 17 16 14 8 6 4 4 5 3 2 5 4 7 7 5 2 6 10 8 11 11 10 12 14 14 13 11 10 10 9 6 8 8 9 13 15 16 16 16 18 18 18 17 15 16 16 16
27 28 29 30 31 32 32 32 32 32 32 33 34 34 34 33 32 32 30 29 27 22 19 16 14 11 9 4 3 3 6 9 14 12 10 6 6 9 12 18 20 20 15 12 10 8 6 4 5 3 1 5 5 8 8 3 3 5 12 10 9 10 12 16 16 16 13 9 11 12 9 8 11 12 10 13 16 16 16 17 17 17 16 15 15 15 14 14
28 28 29 30 31 32 33 33 33 33 33 33 34 35 35 34 33 33 31 30 25 20 16 13 11 8 6 3 4 1 8 10 16 10 8 7 10 12 14 16 20 22 14 9 12 11 8 3 1 1 3 5 5 8 9 4 5 7 14 11 12 13 13 18 17 15 12 9 13 14 11 9 9 10 8 10 16 17 17 16 16 16 15 15 15 14 15 15
28 29 29 30 32 33 33 34 34 34 34 34 34 35 35 35 34 34 32 29 23 17 13 10 9 5 3 2 3 4 8 7 11 5 4 9 14 14 15 16 19 23 16 8 13 15 10 4 3 3 2 2 4 9 12 7 8 10 14 10 12 15 12 17 17 14 12 8 12 15 12 8 6 8 10 13 16 17 17 16 16 14 13 14 15 13 13 13
29 30 30 31 32 33 34 34 34 35 35 35 35 35 35 35 34 35 34 28 20 13 10 8 5 2 2 1 6 13 15 10 8 7 7 9 14 14 14 17 20 23 20 10 11 15 12 8 2 1 3 2 3 5 9 4 6 11 14 10 11 15 13 15 16 14 13 8 12 15 10 5 6 10 13 14 15 16 17 16 15 13 11 11 12 11 9 12
29 31 31 32 33 33 34 35 35 36 36 37 36 35 35 36 35 35 34 25 15 11 8 6 3 0 2 1 11 19 21 20 19 16 15 13 14 16 16 19 20 22 23 17 13 12 12 11 5 4 5 3 3 3 8 7 6 11 10 9 10 11 9 12 14 14 14 12 15 14 5 3 7 12 14 14 15 15 15 13 13 11 9 10 10 10 8 11
30 32 32 33 33 34 34 35 36 36 37 38 37 36 35 35 36 35 30 20 12 8 5 3 3 2 2 6 18 21 19 19 22 21 17 15 17 18 18 21 20 19 20 21 18 14 13 11 5 4 5 5 7 6 7 6 5 8 7 6 6 7 7 11 13 15 13 10 15 12 4 6 8 13 14 14 15 16 13 12 12 10 9 9 9 9 7 7
31 32 33 34 34 34 34 35 36 36 37 38 38 37 35 35 35 31 23 14 7 4 4 3 4 2 1 9 18 18 14 11 14 18 15 15 18 15 16 20 20 19 18 20 19 16 16 11 4 3 5 7 7 6 5 4 1 4 6 4 4 5 7 10 13 16 14 10 12 11 5 6 9 13 13 13 15 15 13 11 11 10 10 10 8 9 7 5
32 33 34 34 35 35 35 35 35 36 37 38 38 36 34 34 31 24 16 7 3 4 4 3 4 3 0 6 12 14 9 5 8 12 12 15 20 16 15 18 16 17 17 18 19 17 14 7 3 4 5 6 4 2 3 3 2 1 4 5 6 6 6 7 9 14 18 13 9 9 7 5 8 12 13 13 15 14 12 11 12 11 12 11 8 8 7 5
33 34 34 35 35 35 36 35 35 37 37 38 39 36 33 30 21 13 6 2 3 5 5 2 1 2 4 7 9 10 6 6 9 12 11 13 22 21 13 9 8 11 12 15 16 12 8 4 2 3 4 4 3 3 2 3 3 0 3 4 6 8 7 5 6 10 17 15 8 9 10 7 9 13 13 14 15 14 12 12 12 12 11 10 8 8 7 7
35 34 35 35 36 36 36 35 36 37 37 38 37 35 30 19 9 5 7 8 6 5 3 2 1 1 4 6 4 5 5 7 11 13 13 12 21 23 15 8 5 6 5 7 8 6 4 2 1 2 4 3 3 5 2 5 5 4 5 5 4 7 8 8 7 9 15 14 10 10 9 9 11 13 13 14 15 14 13 12 12 12 11 10 8 8 7 8
35 35 36 35 36 37 36 36 35 36 39 37 34 29 18 9 4 6 8 7 4 1 3 3 3 1 7 9 7 7 11 13 12 13 15 14 16 19 16 10 6 5 3 1 4 4 5 2 1 3 5 4 4 6 7 8 6 7 7 7 6 6 6 9 9 11 15 13 11 12 11 12 14 14 13 14 14 14 13 11 10 11 11 10 9 8 8 9
35 35 36 36 37 37 36 36 34 37 37 31 29 21 8 5 4 2 2 2 3 6 10 9 7 7 12 14 12 13 16 16 12 13 19 18 13 12 10 7 4 4 4 4 4 3 5 4 4 5 8 7 7 8 9 8 5 6 6 6 7 7 5 8 10 12 13 11 10 14 14 15 17 16 15 15 14 14 13 11 11 12 10 10 10 10 11 9
36 35 36 37 37 37 38 35 34 36 29 20 20 13 1 3 4 5 8 8 11 11 13 15 11 12 16 17 17 14 10 11 9 12 21 20 11 9 6 5 5 5 5 5 5 2 4 6 7 8 11 10 9 9 7 5 5 7 8 7 7 7 7 10 12 13 11 8 8 14 15 15 16 16 15 16 15 14 15 14 14 15 13 11 11 12 12 8
36 35 37 37 37 39 37 35 36 31 18 15 17 5 3 7 10 13 11 9 16 12 12 16 14 15 19 22 27 19 6 9 11 8 17 17 9 8 6 6 6 5 5 4 4 4 4 6 10 10 9 8 7 8 6 5 6 7 7 7 6 5 5 6 8 13 10 5 6 13 14 12 15 16 16 17 16 14 16 16 16 17 14 12 12 12 12 9
35 35 37 37 38 40 36 36 35 19 11 20 18 8 8 16 20 21 10 5 13 12 9 13 14 13 15 18 23 16 8 10 10 8 14 14 8 7 8 7 7 5 5 6 6 5 4 6 10 10 8 6 7 8 6 5 5 5 5 5 5 6 6 5 6 12 8 4 10 13 10 9 11 12 13 16 16 13 16 17 16 17 17 16 15 14 14 13
35 36 37 37 39 38 36 37 25 9 18 29 18 10 16 22 23 21 8 3 9 9 9 15 13 10 17 19 15 10 8 10 9 9 14 14 7 6 8 8 8 5 6 7 7 6 6 8 7 8 8 7 8 9 6 5 5 5 7 7 5 8 12 9 6 8 4 4 12 12 5 4 8 10 11 12 12 12 14 16 15 15 16 16 15 15 16 16
35 36 36 37 38 38 39 31 12 13 31 27 10 11 21 23 24 20 6 1 7 6 5 11 9 10 20 20 13 9 6 7 8 8 12 14 9 6 6 6 6 7 8 7 7 5 8 9 5 7 9 8 7 9 8 6 4 4 7 9 9 11 13 11 8 7 5 2 10 13 6 4 6 10 13 10 9 11 12 14 15 14 14 13 13 14 15 15
36 36 36 36 36 40 35 15 10 26 29 12 6 19 23 22 28 20 3 1 6 5 2 5 5 9 14 10 8 8 5 7 10 11 14 16 13 8 5 3 3 7 8 5 4 3 6 8 6 7 10 10 8 8 10 7 4 5 6 10 11 11 12 12 11 8 5 4 9 13 8 3 4 8 12 11 10 12 13 15 16 14 13 13 13 14 14 14
36 35 36 35 34 37 23 9 21 28 12 5 15 24 23 25 29 15 1 3 5 4 2 2 2 5 9 7 9 8 5 6 9 11 14 18 14 7 6 5 2 5 6 4 4 3 6 9 9 9 9 9 8 8 9 7 5 7 7 9 10 12 15 16 13 10 5 4 5 7 5 5 6 9 10 10 11 12 14 15 15 15 14 15 14 15 15 16
36 36 36 34 33 31 17 15 22 15 6 13 22 23 24 28 23 6 4 3 5 3 2 3 3 2 3 4 9 7 6 7 8 8 12 19 16 6 6 8 6 7 6 6 5 5 6 9 10 11 10 7 7 9 10 7 6 8 8 8 7 10 16 17 14 10 5 6 4 5 3 5 5 4 4 8 10 12 16 18 17 16 17 16 16 16 16 17
37 36 35 35 34 26 13 13 16 13 16 21 21 24 28 26 13 4 4 1 4 3 0 1 2 3 2 2 8 7 6 5 6 6 8 15 15 7 4 7 8 9 8 7 6 5 6 9 11 12 10 7 8 11 10 8 7 8 9 8 5 5 8 13 12 7 5 6 7 9 7 5 4 3 4 6 9 13 15 17 17 17 17 16 16 17 16 15
38 35 35 35 33 24 15 17 24 20 18 16 21 28 26 15 4 5 1 2 3 5 2 1 2 3 3 3 6 8 7 5 5 5 6 8 11 7 3 5 6 5 6 6 7 7 6 7 8 8 8 8 10 11 9 10 10 7 6 7 4 1 4 6 4 4 5 4 7 12 13 8 3 5 6 8 13 17 15 13 14 15 16 17 16 16 16 14
38 35 34 33 31 24 14 15 17 9 6 14 24 24 13 4 4 3 4 2 4 6 3 2 2 3 6 6 6 7 8 6 4 6 5 5 8 7 3 4 4 3 4 4 6 8 9 8 5 5 8 9 9 10 9 9 9 6 2 3 4 4 3 3 3 3 5 5 6 11 14 11 6 5 7 12 17 18 15 15 17 19 19 18 16 14 15 14
38 35 34 33 30 23 16 16 14 9 12 19 20 10 2 3 1 3 4 3 3 5 1 1 2 2 7 9 7 9 9 6 5 6 6 6 7 7 6 5 5 4 4 4 4 6 9 10 7 6 8 10 9 8 8 6 6 6 3 4 3 2 1 1 1 2 4 5 6 11 14 10 7 7 12 18 19 16 15 17 21 22 21 18 16 15 14 14
39 37 34 31 27 25 26 25 23 20 19 16 8 3 4 3 3 6 5 2 3 4 4 5 6 5 5 7 6 10 9 7 6 5 8 9 7 8 9 8 7 6 4 4 4 4 6 8 9 9 7 8 10 8 7 6 4 5 5 4 5 3 2 3 3 2 2 4 6 7 10 6 5 6 12 20 22 20 18 18 20 21 20 19 17 16 15 15
40 36 35 32 28 29 29 27 25 21 14 6 1 3 3 4 5 6 8 7 8 8 8 8 11 11 6 7 7 9 8 8 8 6 7 8 7 7 9 9 8 6 4 4 4 5 6 7 8 9 5 7 11 11 10 8 6 5 5 6 5 5 4 4 3 3 4 4 5 3 5 5 5 6 11 20 23 21 18 14 13 16 17 17 16 15 15 15
39 35 35 32 29 28 22 20 23 16 7 3 3 3 5 5 4 5 6 8 8 9 10 10 11 10 7 6 7 8 9 8 9 7 6 7 7 7 8 9 9 7 5 4 4 4 7 8 7 8 8 9 11 10 9 8 6 5 4 6 4 6 6 3 4 5 4 3 4 3 3 5 5 5 5 11 15 14 12 9 11 14 14 13 12 13 13 13
40 37 31 25 26 26 17 14 16 15 11 5 3 3 6 5 4 4 3 4 4 5 8 9 7 5 5 4 5 8 9 7 9 8 4 6 9 9 9 8 10 11 7 5 4 3 5 6 7 6 8 10 11 9 9 8 6 4 3 5 5 6 8 4 3 2 3 2 4 2 2 4 2 4 6 2 5 8 11 11 13 14 14 13 12 12 12 12
39 32 22 22 25 20 15 13 19 21 10 4 5 5 6 5 5 5 2 0 1 3 5 5 3 3 5 5 4 8 10 6 7 7 4 5 7 9 11 8 9 13 10 8 4 3 5 5 7 6 8 10 10 9 9 8 7 5 5 7 4 2 4 4 2 2 4 1 5 2 3 4 1 3 5 4 7 9 12 15 15 13 13 15 14 13 14 15
31 21 15 20 20 8 14 18 26 20 5 3 6 6 4 4 5 6 4 3 5 6 5 4 2 2 5 6 7 5 6 7 6 6 5 5 5 10 13 9 10 14 13 12 6 3 4 4 7 7 8 8 6 6 8 6 5 6 5 6 4 3 2 1 3 2 2 2 4 4 5 4 4 5 3 3 9 11 12 13 14 14 15 15 14 14 16 15
18 8 6 16 17 4 20 25 24 11 3 5 7 5 3 5 6 7 6 4 4 5 5 4 3 3 6 7 10 9 4 7 7 6 6 5 4 11 14 9 10 14 14 13 8 5 4 2 5 7 6 7 6 4 6 6 4 3 3 3 2 4 5 3 3 5 4 3 3 3 5 4 5 5 5 8 11 12 14 13 13 16 16 14 13 13 13 13
8 2 5 14 8 17 28 24 13 4 2 5 5 3 3 5 6 7 6 3 3 4 5 5 5 6 8 9 11 9 5 6 7 6 6 7 6 9 15 12 9 14 17 14 10 6 4 4 5 8 5 5 6 5 8 8 6 3 3 4 3 0 2 2 1 3 5 4 3 3 4 5 5 5 7 11 11 12 14 14 13 13 14 13 13 13 12 13
4 2 3 10 13 20 21 12 3 3 3 4 2 3 5 5 6 7 6 7 6 6 8 9 9 8 8 10 12 8 6 8 7 6 5 8 8 5 11 13 10 12 14 12 10 7 4 5 5 6 6 4 6 8 11 12 10 7 5 6 6 4 4 3 2 2 3 4 5 5 4 6 6 4 6 8 9 9 11 13 12 12 13 13 12 14 15 14
1 1 6 3 6 3 5 2 2 3 2 4 2 4 6 6 8 9 7 7 8 8 9 10 11 10 9 10 11 9 7 8 7 6 4 7 11 8 10 16 15 13 12 10 11 10 6 4 4 5 7 7 9 11 12 13 11 8 7 7 7 5 5 5 4 4 2 2 2 4 2 5 6 3 7 8 9 9 10 12 11 10 12 13 13 15 15 14
1 5 15 15 11 3 2 1 3 2 2 4 4 7 8 7 9 9 8 8 7 7 7 8 10 10 10 12 12 10 9 8 8 7 5 6 10 11 15 20 19 13 10 9 10 9 6 4 4 3 5 6 8 10 10 10 9 6 4 5 6 6 5 6 5 5 4 3 2 4 1 5 6 2 5 8 8 9 9 11 12 11 10 11 12 13 13 12
3 5 10 14 11 1 4 2 4 3 4 6 7 9 10 9 9 10 10 8 6 6 7 9 10 9 10 11 11 9 8 7 7 7 5 4 6 10 15 22 21 14 9 8 8 7 5 5 5 3 4 5 5 6 7 6 5 4 4 5 7 7 7 5 2 3 3 4 5 6 2 6 5 3 2 7 10 10 9 11 13 12 10 10 11 11 11 11
5 3 4 9 9 2 3 2 2 3 4 5 7 10 9 8 9 11 13 12 9 9 8 9 10 11 11 12 13 12 9 7 5 4 3 2 2 6 8 13 16 14 13 14 13 9 6 5 6 6 7 6 5 6 7 5 4 3 3 7 9 9 9 5 3 4 3 3 5 7 4 6 4 2 3 8 11 11 10 11 11 11 11 11 11 11 11 11
3 2 3 5 4 1 1 2 3 3 3 5 6 8 8 8 8 9 11 12 12 12 11 10 11 11 10 10 14 13 8 5 5 6 5 2 1 3 2 2 6 10 15 19 16 8 4 5 7 10 9 8 8 8 7 7 7 6 6 8 9 9 9 7 5 4 6 5 4 5 7 6 4 5 8 9 11 11 10 10 10 10 11 11 11 11 11 10
1 2 3 4 4 4 4 3 6 5 5 5 3 5 9 10 10 9 8 8 10 11 11 10 9 7 6 8 13 12 5 4 7 9 7 3 3 4 2 2 1 6 11 15 15 7 4 5 8 13 14 14 12 9 8 10 12 10 9 9 9 8 8 8 6 5 6 7 5 8 9 12 11 12 12 11 10 10 10 11 12 11 11 11 10 10 10 10
1 2 3 4 3 3 4 5 7 9 9 7 3 5 11 12 11 9 6 7 9 8 6 5 4 4 4 8 12 10 4 4 4 6 6 4 4 4 4 3 1 6 10 5 10 6 5 6 8 12 14 16 14 9 8 11 12 12 12 12 12 9 8 9 7 7 9 8 7 9 13 16 15 14 15 15 14 14 14 13 13 12 11 11 10 10 11 11
2 2 3 4 3 4 6 9 10 9 10 9 4 5 9 10 11 10 7 7 8 5 2 1 1 2 4 8 10 7 2 2 1 2 4 5 5 4 3 4 2 5 8 4 4 4 5 6 9 13 13 13 13 11 8 9 10 12 13 10 8 7 9 10 8 9 11 9 9 13 15 14 14 16 17 14 10 10 10 9 10 11 11 10 10 11 11 11
2 2 4 4 4 5 6 8 8 7 8 7 4 4 8 10 11 12 8 5 5 4 3 4 5 5 7 10 7 2 1 1 2 3 4 4 5 4 2 2 3 5 6 4 4 3 5 6 8 11 9 9 10 9 6 6 8 9 8 5 4 3 3 3 4 6 6 4 6 15 16 11 9 10 10 6 4 6 7 7 8 9 10 10 10 10 10 9
5 6 6 4 4 4 4 5 5 5 5 3 3 5 9 11 14 13 8 3 2 4 5 8 9 6 7 7 5 5 7 6 4 7 6 4 4 4 3 2 1 5 6 4 4 4 4 4 4 7 6 5 6 6 6 6 6 5 3 1 3 3 2 2 2 4 4 2 3 9 11 9 7 5 7 6 7 9 10 9 8 7 8 10 10 9 8 9
10 8 6 3 3 3 4 4 5 4 3 3 6 9 10 13 16 13 6 2 4 6 4 6 8 4 4 5 6 9 11 10 9 10 7 5 6 5 5 4 2 1 2 3 3 3 1 2 3 6 6 4 3 5 7 6 5 1 4 2 4 6 6 5 4 1 3 6 7 6 7 6 3 6 8 8 9 10 9 8 7 7 8 8 9 8 8 8
Wind_Direction
1 0 359 359 358 357 356 356 356 355 356 356 355 354 353 353 353 353 352 351 350 347 345 343 344 345 345 341 337 335 332 325 315 298 251 270 272 257 246 240 242 252 232 226 238 255 284 287 270 271 287 305 260 250 274 183 129 91 100 122 168 178 177 167 166 182 161 135 121 125 133 133 136 126 113 119 126 128 126 123 120 111 113 124 125 131 141 145
359 359 357 357 356 355 355 354 353 353 354 353 354 353 352 352 351 351 351 349 348 346 343 341 341 343 344 341 335 334 332 322 314 284 264 281 282 260 243 235 230 228 210 211 226 228 243 264 267 303 14 295 269 245 256 217 145 142 128 133 202 202 182 162 162 180 151 134 131 135 139 136 138 133 131 133 129 123 118 115 113 111 115 120 121 125 135 142
358 357 356 355 354 354 353 352 351 351 351 351 352 352 351 350 350 350 349 348 347 344 341 337 337 341 342 340 335 334 331 322 312 272 277 317 302 260 237 226 218 209 210 215 225 224 221 246 304 13 357 258 256 248 259 237 164 183 129 131 214 185 157 158 153 169 153 132 125 131 131 128 138 133 129 128 127 128 128 129 126 126 131 130 128 130 136 141
357 356 355 354 353 352 351 350 349 349 348 348 348 350 349 349 349 349 347 346 345 343 338 334 334 338 342 340 337 336 333 323 289 246 282 356 337 259 218 213 210 208 215 220 230 236 240 267 321 3 277 270 262 242 249 231 184 195 147 159 203 146 140 167 157 166 147 122 122 123 110 104 109 112 123 125 124 134 141 146 144 142 144 139 137 137 140 142
355 354 353 353 351 350 349 348 348 347 346 345 345 346 346 347 347 347 346 344 344 341 335 331 331 335 341 340 339 340 342 348 284 239 272 352 345 248 202 198 202 207 209 219 232 245 260 282 309 326 223 254 262 244 248 231 197 240 178 163 165 133 146 181 163 150 122 111 116 111 110 108 98 113 133 135 135 156 154 151 147 146 148 146 145 143 143 145
352 351 351 350 350 348 347 347 346 345 344 342 342 342 344 345 345 346 345 343 342 340 333 328 330 334 340 342 339 336 353 286 287 272 285 327 336 234 189 188 193 197 202 217 232 251 286 262 228 234 221 255 263 244 258 248 182 173 190 152 147 142 153 170 141 121 115 113 114 113 121 115 104 118 143 141 141 153 147 145 144 145 147 146 145 145 148 151
350 350 349 348 348 347 345 345 343 343 342 340 339 339 341 341 343 344 343 342 340 338 331 326 330 334 341 351 341 352 80 255 277 282 294 315 323 185 176 184 188 187 202 213 215 198 179 211 214 193 237 272 264 246 266 292 157 141 153 145 146 152 151 144 126 119 121 118 119 117 111 109 115 122 136 134 135 137 138 139 139 141 144 144 144 148 153 156
350 348 347 346 346 345 344 343 341 341 340 338 337 337 338 339 340 341 341 341 338 336 329 324 330 336 347 5 9 357 230 254 277 284 289 297 167 148 164 182 189 194 206 208 193 171 181 231 225 185 241 262 267 277 289 323 324 136 143 156 151 149 134 120 117 118 116 114 115 109 103 107 110 102 112 125 130 133 135 137 138 140 144 146 148 152 156 162
350 348 346 345 344 343 342 341 340 339 338 337 335 335 335 335 337 338 340 339 336 332 324 322 328 338 354 15 67 349 263 273 307 296 274 260 174 157 166 182 193 199 209 213 202 184 190 215 208 174 320 293 302 297 294 317 281 163 147 158 141 129 120 112 112 117 117 118 117 108 104 106 103 96 101 124 131 134 136 138 142 143 148 152 155 159 163 169
349 347 345 344 343 342 340 339 338 337 336 335 334 333 331 333 334 335 337 335 332 327 318 318 321 337 6 17 82 346 277 319 333 300 252 228 181 171 178 188 196 200 209 218 208 201 200 198 145 55 345 315 309 298 289 245 215 165 140 140 131 128 122 115 118 123 119 123 124 119 122 119 108 105 113 135 135 137 139 142 148 149 155 159 163 168 170 175
348 347 345 343 342 340 339 338 337 336 334 333 332 331 329 330 332 332 333 331 327 319 310 310 314 332 32 60 118 237 271 337 358 345 243 217 189 186 193 198 200 201 207 219 221 216 215 248 358 9 321 317 324 302 287 232 178 146 128 120 124 125 119 120 124 128 121 129 134 124 123 114 90 112 135 146 142 142 144 148 155 158 163 165 169 171 172 179
348 346 344 343 341 339 339 337 336 335 333 332 330 328 328 328 331 330 328 327 321 309 301 299 300 333 30 89 205 244 268 289 320 330 295 238 203 211 217 212 208 204 206 213 237 229 224 246 289 309 238 301 338 305 301 277 147 134 126 113 116 115 121 131 130 135 131 139 140 119 110 109 112 134 143 145 145 146 146 152 160 163 166 168 172 170 172 178
347 345 344 342 341 339 338 337 336 334 332 331 328 326 325 326 329 327 323 323 312 294 289 278 252 245 46 251 244 262 280 286 290 293 284 260 233 236 232 219 215 212 211 215 235 238 234 241 224 224 256 299 292 261 301 296 145 136 126 116 119 114 131 143 136 139 133 143 146 123 114 161 144 147 148 146 145 146 149 157 163 163 162 163 168 170 175 173
346 345 343 342 341 339 338 336 335 334 331 329 326 325 323 325 327 323 320 316 300 280 265 232 200 139 103 257 268 281 296 297 288 278 267 251 238 244 238 221 215 215 219 226 237 247 251 251 233 247 272 255 255 273 297 290 153 137 116 105 122 124 154 160 147 140 133 153 149 119 125 176 159 157 153 149 148 149 155 162 164 161 157 161 165 169 175 172
345 343 342 342 340 339 338 337 335 333 330 328 325 323 321 323 323 320 316 306 287 255 224 193 184 149 45 272 280 296 308 300 273 257 250 236 223 231 235 220 214 214 222 234 240 250 255 256 243 245 261 246 254 284 306 308 217 136 117 123 135 132 160 171 159 145 141 162 147 115 126 170 162 166 159 153 154 153 158 164 163 159 161 165 166 171 178 183
345 343 342 340 339 339 338 337 336 333 330 327 324 321 320 322 321 317 313 298 259 195 157 131 186 171 320 276 294 307 296 254 255 250 239 223 210 209 214 211 215 220 229 240 243 251 254 253 237 222 245 256 248 263 337 339 274 48 109 151 158 146 165 177 171 156 147 154 155 130 139 167 167 171 164 157 158 157 161 164 160 158 165 168 168 172 175 181
345 343 341 339 338 338 337 337 336 334 330 326 324 321 319 322 321 319 327 93 129 164 147 78 234 176 246 272 302 307 281 243 259 257 243 218 207 206 193 190 221 226 236 251 250 251 247 233 223 234 247 238 185 113 13 306 231 17 95 151 167 160 164 168 173 170 153 151 163 145 144 168 172 168 164 162 161 159 164 165 161 162 166 170 172 171 174 181
344 343 341 339 337 336 336 336 336 336 331 325 325 323 321 327 339 25 74 109 113 135 145 332 332 104 270 271 280 283 298 284 259 244 240 221 204 201 184 177 210 209 227 263 251 229 202 211 194 258 267 213 131 103 150 234 196 168 156 147 168 162 159 167 166 178 165 150 149 149 149 164 166 166 165 166 163 160 169 168 163 166 166 172 174 171 176 183
343 342 341 339 337 335 334 335 337 338 333 325 327 330 331 349 31 77 94 112 98 79 279 271 187 235 282 271 259 265 290 290 267 237 230 223 205 194 186 190 190 178 176 215 248 210 176 226 277 254 258 217 167 147 188 222 196 178 171 150 164 165 168 177 171 179 168 146 150 157 155 161 167 170 169 169 166 162 170 166 162 170 168 173 177 173 179 186
342 341 341 339 337 335 333 334 336 338 334 330 337 344 353 9 4 22 60 177 226 248 263 259 214 234 270 273 273 272 282 282 260 222 220 225 205 177 183 194 173 180 186 184 237 227 164 206 246 227 235 227 200 190 205 229 220 195 176 157 168 168 182 187 177 185 169 145 164 165 156 164 169 173 173 170 169 168 171 166 166 173 173 176 178 176 180 188
341 340 341 339 338 335 332 333 335 336 335 337 350 1 353 323 331 323 326 298 272 248 248 258 238 235 255 263 269 270 284 284 258 215 216 220 192 158 188 194 173 207 215 195 225 238 165 203 232 224 230 231 218 213 214 235 250 219 188 172 180 177 189 194 181 185 172 138 164 165 155 166 172 174 176 170 170 176 176 171 170 175 178 178 178 179 180 181
340 341 341 339 338 334 331 332 334 334 337 348 350 346 237 298 309 311 310 294 290 270 246 256 247 247 253 257 263 260 256 269 268 236 212 207 180 169 197 187 174 211 223 195 214 230 199 220 231 228 232 235 238 238 224 232 247 231 201 172 187 188 182 212 194 179 171 126 160 167 156 170 179 175 177 176 176 181 180 175 172 174 177 180 179 179 177 170
340 341 341 340 337 333 330 332 332 331 346 343 326 287 311 327 328 325 307 260 287 273 240 247 243 249 255 256 260 249 223 239 252 243 208 189 175 174 181 188 184 198 211 198 198 201 212 237 229 226 238 243 251 255 241 241 244 228 208 179 192 187 171 219 211 179 174 133 159 167 156 173 184 177 181 184 181 180 181 178 174 175 177 181 182 176 174 173
340 341 341 340 337 333 330 331 330 334 339 332 308 293 335 335 339 342 329 248 282 266 225 231 231 235 244 249 249 227 214 222 226 231 201 179 165 155 172 188 180 195 219 205 192 188 224 243 219 213 236 238 245 257 246 238 250 224 200 193 193 190 190 202 189 165 135 110 152 149 128 186 188 183 190 191 186 182 180 178 177 181 182 180 179 176 176 176
339 341 340 340 339 333 331 331 331 336 333 327 307 329 338 335 342 348 348 265 284 280 215 217 217 225 235 238 232 219 221 219 219 216 189 179 168 144 182 194 165 202 220 207 194 193 235 248 213 202 232 236 238 253 241 217 237 249 216 202 193 192 198 194 168 140 95 121 166 144 132 235 218 195 195 189 186 187 184 184 184 184 184 179 177 179 180 178
339 339 339 341 339 335 336 336 323 330 328 315 326 336 332 337 343 341 349 50 290 278 203 190 188 208 217 209 193 199 222 235 220 199 181 184 180 155 187 209 154 200 206 202 206 190 227 245 235 214 228 235 234 249 244 211 205 256 232 206 198 188 189 184 168 153 141 187 191 166 153 202 229 219 208 190 181 188 191 192 190 186 183 182 180 181 181 180
337 338 339 339 338 339 340 310 312 323 314 290 330 331 330 337 339 335 55 27 291 248 202 200 184 193 198 177 154 159 204 223 203 195 182 182 184 162 179 190 172 200 187 178 216 210 204 224 240 232 228 232 231 244 242 200 191 248 234 209 201 175 171 176 172 177 178 139 183 193 128 124 200 221 206 188 180 188 197 198 195 192 188 186 184 183 183 182
336 336 337 335 333 335 325 293 306 309 277 314 325 324 330 336 335 345 96 358 280 234 169 205 232 247 233 168 150 164 218 190 176 199 183 178 181 166 182 191 180 198 193 178 212 246 211 206 224 230 231 230 225 237 233 194 199 240 233 210 191 167 169 171 172 190 179 117 167 229 117 123 219 236 168 178 188 192 200 202 197 195 193 189 187 187 187 185
336 335 333 331 328 328 322 288 281 281 298 317 325 325 329 331 333 65 90 305 274 291 175 174 261 238 262 130 160 202 228 178 180 193 164 176 185 171 187 197 185 202 207 188 201 240 222 203 207 217 230 229 227 238 226 198 211 237 237 214 166 140 163 170 176 181 150 142 189 208 181 163 245 248 165 174 201 203 202 202 200 197 193 192 191 190 189 185
335 332 330 329 323 322 325 289 277 290 309 319 325 323 323 326 14 82 101 240 297 299 243 29 330 187 175 147 177 214 215 197 204 173 145 176 189 180 173 181 182 201 215 207 208 224 235 223 205 206 223 224 228 240 223 199 209 233 253 235 221 39 103 153 176 128 132 192 213 202 195 189 221 239 196 187 205 203 195 195 200 199 194 194 194 190 188 185
333 328 326 323 313 310 313 289 286 310 331 322 323 320 321 347 78 116 221 260 314 278 228 216 245 165 170 176 180 205 209 209 197 164 156 173 185 193 178 166 177 189 215 229 227 234 244 245 232 208 214 216 224 242 235 208 205 219 243 200 229 294 51 77 18 78 160 223 230 204 197 199 219 242 216 212 216 205 188 186 193 196 196 195 194 190 187 185
330 326 321 314 306 292 267 265 281 285 294 312 319 322 39 67 38 205 227 347 322 244 246 249 231 175 192 191 184 194 198 206 193 166 168 173 182 197 194 185 179 186 214 220 235 249 241 235 238 234 220 207 210 235 246 235 206 203 196 111 129 264 324 112 209 179 195 236 233 194 184 199 226 223 208 212 220 213 194 190 191 191 191 191 192 190 186 184
328 325 317 310 303 281 265 274 281 277 290 309 320 1 84 129 226 215 216 289 254 247 349 348 334 332 231 203 197 194 192 204 202 176 174 178 180 195 207 205 171 159 194 202 208 242 252 245 230 227 229 205 201 213 232 242 214 187 188 149 136 152 168 224 231 210 215 254 251 191 173 198 249 239 209 205 212 211 201 196 190 186 184 187 192 189 184 185
328 325 317 309 298 282 275 277 272 267 278 296 24 66 116 185 224 210 206 224 245 277 318 326 324 318 272 229 215 192 184 206 204 175 167 176 182 194 209 215 189 154 147 190 195 195 223 247 225 212 217 199 204 209 204 202 206 203 175 149 159 156 162 213 210 190 204 237 259 210 167 191 210 232 210 200 208 209 201 193 175 176 183 185 190 189 183 185
328 324 317 308 294 285 279 266 257 247 225 189 94 114 182 213 224 205 215 228 248 283 304 313 314 305 284 257 237 203 185 201 204 186 169 175 190 195 197 211 206 177 150 189 215 197 211 239 238 219 211 201 206 205 185 174 200 224 142 121 174 176 160 189 196 188 180 208 248 215 196 210 206 262 250 201 207 202 184 166 152 171 184 178 184 190 184 185
330 327 320 302 287 285 277 250 223 191 169 151 132 184 212 221 208 195 214 214 230 281 311 323 320 299 291 278 248 220 198 197 200 200 196 180 190 197 195 204 202 190 177 184 216 202 201 247 259 222 212 216 208 185 170 171 187 214 164 170 212 173 145 147 233 256 89 150 259 241 258 291 290 304 323 102 166 170 162 165 168 172 172 170 182 189 185 185
331 330 315 293 296 289 257 217 172 163 160 142 173 210 225 227 219 217 224 116 314 333 345 333 328 312 301 296 269 218 197 198 197 198 205 188 192 196 196 205 200 195 188 183 217 221 185 256 273 219 214 230 216 189 186 181 155 150 199 209 209 128 113 113 175 332 55 169 275 301 253 278 219 266 321 74 138 171 173 176 175 166 165 174 184 185 185 189
325 321 295 297 320 298 212 179 153 152 143 149 207 236 228 228 229 229 256 338 328 325 330 297 282 326 301 300 306 273 197 194 192 191 199 198 204 194 190 201 203 200 194 183 208 247 188 254 283 237 221 228 213 195 211 218 164 149 186 196 164 151 181 109 159 169 110 196 273 305 278 255 196 228 270 158 174 184 179 176 172 168 172 179 182 184 188 190
324 314 295 327 337 220 174 155 145 141 105 166 216 240 229 257 254 250 280 326 307 291 286 268 246 278 289 289 299 300 252 207 194 188 198 196 213 200 190 193 201 204 200 183 193 230 189 199 280 271 240 202 190 190 206 234 238 159 153 182 175 160 174 185 172 160 161 191 225 283 294 271 223 217 203 195 193 181 175 175 175 177 180 181 178 180 186 187
342 287 303 352 13 158 149 138 137 123 147 187 214 229 260 285 268 260 268 258 253 252 257 268 260 273 287 283 283 287 280 254 221 198 202 190 193 204 195 192 191 201 205 194 188 205 187 180 246 286 284 202 198 207 193 196 201 174 156 185 211 184 139 166 210 151 144 159 181 217 258 265 250 216 190 195 195 182 173 170 175 181 182 180 174 172 180 188
349 315 296 51 90 143 141 127 142 143 185 238 241 234 270 284 272 278 264 233 234 233 241 255 254 259 272 275 279 279 279 281 250 218 221 193 178 194 204 200 188 190 203 204 197 194 180 178 209 258 278 245 230 224 199 188 185 173 171 186 192 177 126 128 258 262 145 154 171 180 219 262 264 219 184 181 178 175 170 166 173 181 179 177 175 175 181 189
350 328 261 2 38 182 160 127 221 162 204 249 237 249 271 272 268 282 275 248 247 240 236 245 246 250 257 261 271 272 263 272 254 224 231 205 190 184 197 204 201 188 186 203 211 198 171 154 180 224 253 247 239 232 207 189 180 172 179 187 181 165 127 131 194 237 217 179 141 124 160 268 273 218 164 163 165 168 167 166 169 175 177 177 178 180 183 188
151 291 281 304 328 275 178 297 261 217 231 240 245 254 256 258 264 270 268 256 252 247 241 248 250 248 252 254 258 258 248 255 258 243 234 216 207 198 190 197 204 195 179 193 209 195 173 173 185 230 275 270 259 250 224 191 167 165 187 175 168 179 163 152 170 185 192 202 139 89 86 261 281 293 160 159 153 154 160 163 165 169 175 177 176 179 183 187
284 276 283 316 332 240 173 241 243 230 249 247 249 248 242 248 254 254 258 251 242 249 249 253 256 251 256 263 263 262 255 254 262 256 236 201 219 224 204 196 198 193 181 193 194 181 184 185 166 182 253 267 280 268 240 215 186 181 188 174 183 188 162 140 119 130 179 217 157 125 185 245 280 344 153 156 143 149 165 168 168 167 170 175 174 176 183 186
308 260 250 311 322 253 184 233 259 256 267 272 272 265 257 256 248 243 249 248 242 248 253 256 261 263 271 285 290 285 274 259 260 268 250 195 248 255 227 208 204 197 195 193 179 169 185 180 158 175 208 217 212 216 217 209 207 219 178 173 193 197 175 156 113 131 191 218 137 134 186 248 290 336 198 175 152 155 169 168 171 171 171 175 175 176 184 184
336 303 279 310 324 338 295 323 1 5 341 337 317 293 285 284 276 259 252 251 244 241 248 256 262 273 285 295 292 283 273 277 313 324 295 244 266 263 228 215 219 222 219 200 176 154 158 175 173 178 193 202 199 215 215 176 179 211 197 180 192 198 179 148 113 152 188 169 169 197 178 175 212 208 204 196 168 161 167 165 167 171 172 175 177 181 184 182
326 298 335 340 323 338 348 6 26 14 326 319 315 292 296 295 292 282 263 261 257 244 243 244 242 255 279 293 288 280 288 338 341 333 309 258 250 258 250 81 161 277 265 213 182 150 128 184 191 181 196 212 208 217 217 184 185 199 194 195 206 194 159 141 155 189 163 141 212 237 175 159 188 199 195 195 180 168 171 168 166 169 172 176 179 181 181 181
280 283 2 10 328 333 344 332 337 328 308 307 290 274 292 297 298 295 275 268 270 255 241 233 219 227 263 290 288 279 303 5 0 336 320 302 301 304 333 350 25 357 339 245 192 159 139 195 199 180 200 218 213 214 205 187 193 197 194 205 216 204 173 168 185 177 150 156 212 215 181 173 184 192 193 192 184 177 177 172 167 167 170 172 172 174 179 184
318 307 350 12 342 301 297 296 301 303 302 307 292 274 297 304 305 307 300 288 284 269 217 213 284 344 348 324 299 271 288 11 13 321 326 328 325 334 356 330 313 12 5 329 230 184 171 204 196 182 201 216 211 213 198 172 184 197 199 202 206 210 198 189 190 174 167 184 189 178 184 192 189 190 196 197 184 169 164 156 155 162 167 168 169 174 183 186
8 313 331 348 314 283 279 286 295 299 297 296 281 291 312 308 304 309 309 296 297 315 3 343 324 3 9 337 316 287 335 344 207 251 300 331 328 323 326 319 333 348 347 338 315 259 223 226 194 176 192 212 208 205 184 163 175 182 188 184 171 207 231 189 174 168 172 213 183 167 181 207 210 192 180 164 131 122 132 143 156 165 167 165 170 179 185 187
333 301 314 316 288 291 288 291 306 299 286 300 311 316 320 311 308 310 294 250 296 345 360 337 326 0 18 350 352 1 337 328 289 271 276 277 271 271 270 266 343 346 331 333 330 295 249 235 187 147 157 202 201 162 144 149 154 155 188 197 119 103 70 75 108 137 150 151 123 153 181 215 221 166 116 119 141 141 147 156 157 163 165 162 172 183 186 192
333 318 327 313 269 301 312 308 316 297 284 341 332 318 309 301 307 313 298 281 342 344 346 332 326 360 43 11 353 331 317 312 297 285 275 258 256 253 257 266 270 283 291 305 305 293 226 185 177 143 152 220 229 140 127 104 84 81 263 249 102 107 112 101 76 59 161 143 127 161 204 229 212 142 126 142 157 149 154 163 155 155 155 151 162 174 183 195